Theta_e
300 300 299 300 300 300 300 300 300 301 301 302 302 301 302 301 301 301 303 304 307 308 306 300 302 311 320 320 320 322 316 317 311 313 311 303 302 302 302 302 301 301 301 301 302
300 300 300 300 300 300 300 300 300 300 301 302 301 301 301 301 301 301 302 306 309 309 310 313 315 318 317 315 315 313 313 311 304 303 303 301 300 301 301 301 300 300 301 301 301
300 300 300 300 300 300 301 300 301 300 300 301 301 300 300 301 301 300 302 307 309 309 311 313 314 315 310 309 305 302 309 301 300 301 300 300 300 301 301 301 301 300 300 301 301
299 300 300 300 300 301 301 301 301 301 301 301 300 301 300 302 301 300 301 307 310 310 311 312 312 310 303 304 303 303 301 302 300 300 300 300 301 300 301 302 301 301 301 301 301
299 300 300 300 300 301 301 301 301 301 301 301 301 302 301 300 300 300 301 302 305 308 310 310 309 306 303 302 301 300 299 300 300 300 300 300 300 299 301 302 301 301 301 301 302
299 300 300 300 301 301 301 301 301 301 301 301 301 301 301 300 300 301 301 302 303 305 306 305 305 305 303 300 300 299 299 299 300 300 300 300 299 300 302 302 301 301 301 301 302
299 300 300 300 301 301 301 301 301 301 301 301 301 301 301 300 300 301 301 302 302 303 303 303 303 302 301 300 300 300 300 300 300 300 300 299 298 298 301 302 301 301 301 301 302
299 299 300 300 301 301 301 302 301 302 301 301 301 301 301 300 300 301 301 302 302 302 302 302 302 301 300 300 299 299 298 300 300 298 300 299 301 301 301 301 301 301 301 301 302
299 300 300 300 301 301 302 302 302 301 301 301 301 301 301 301 301 301 302 301 303 303 304 303 303 301 301 298 298 295 301 300 300 297 297 300 299 300 301 300 300 301 302 302 302
299 299 300 300 301 301 302 302 302 301 301 302 301 302 301 300 300 301 302 302 303 303 303 304 301 296 294 297 300 301 300 300 299 297 296 297 298 298 301 300 300 301 302 302 302
299 299 299 300 300 301 302 302 302 303 301 299 298 298 298 299 300 300 302 302 303 302 299 299 297 298 298 298 297 298 299 299 298 296 296 296 295 298 299 299 298 300 301 302 303
298 299 299 300 300 301 301 301 300 300 298 297 298 298 298 299 299 300 302 302 301 299 298 297 298 297 298 298 299 299 300 299 297 297 296 296 297 298 296 296 298 298 300 301 303
299 299 299 300 300 300 300 300 299 299 299 299 298 297 298 299 297 299 301 300 298 297 296 299 297 297 298 297 299 298 300 298 298 296 295 294 298 300 299 298 299 299 299 302 303
300 300 299 300 300 299 298 298 298 301 294 299 298 298 298 299 299 299 300 300 298 296 295 295 296 298 298 299 297 301 297 297 297 297 301 295 302 299 299 297 298 300 300 302 303
301 301 300 300 300 298 298 297 299 303 300 298 297 297 299 299 298 299 299 300 297 298 300 298 296 298 299 298 297 299 297 297 297 296 296 298 297 299 298 301 300 299 301 302 303
303 302 301 300 299 299 298 298 303 300 299 295 296 297 299 298 298 299 300 299 298 297 295 295 296 296 297 296 297 296 297 297 295 296 299 299 297 301 301 301 302 300 302 303 302
307 305 303 301 299 298 297 301 301 303 295 295 293 297 298 297 298 297 298 298 299 297 298 298 297 295 295 297 296 297 299 301 301 299 304 297 297 301 301 299 299 301 302 303 303
311 310 309 304 300 298 298 297 297 294 290 295 296 296 297 296 298 296 297 295 296 297 294 298 300 296 294 295 297 296 298 300 301 302 301 297 300 303 299 300 299 301 302 302 302
314 312 312 310 304 298 298 294 300 295 297 295 296 294 289 294 294 296 296 294 296 296 298 296 299 294 294 294 295 297 297 296 295 291 297 299 298 300 299 297 299 301 300 301 302
314 311 312 312 308 298 295 299 293 297 295 295 299 296 290 288 294 295 292 295 298 295 293 297 298 295 294 294 294 296 295 297 294 297 297 300 300 304 305 304 299 297 299 302 301
311 309 312 309 303 297 294 292 291 299 297 296 297 294 295 292 291 289 293 293 295 294 292 287 294 295 293 292 295 294 294 293 294 297 300 299 301 298 300 301 299 297 301 302 301
308 303 310 306 297 289 289 290 296 296 296 296 296 298 296 296 292 291 293 294 296 294 295 292 291 295 295 293 292 294 295 296 297 296 294 298 299 299 298 297 298 300 301 301 301
305 306 306 302 301 296 291 294 295 293 294 293 295 295 296 297 295 295 295 295 295 293 293 293 291 291 296 293 291 290 294 295 294 294 293 296 302 297 298 298 299 299 302 302 302
306 303 299 297 298 303 298 299 297 294 295 294 294 294 296 296 294 291 296 294 295 295 297 296 291 294 300 297 291 290 288 294 292 291 296 297 302 303 302 301 299 300 301 300 299
306 303 303 298 297 299 301 303 299 296 292 294 294 294 294 293 295 295 296 293 294 296 296 292 291 289 290 294 289 290 288 291 295 298 298 302 298 301 301 298 298 299 298 298 299
308 303 300 301 300 300 302 308 308 300 293 293 294 294 293 294 297 297 295 293 294 294 294 290 289 287 288 292 294 294 292 291 296 297 297 298 298 299 300 300 299 298 297 299 300
306 306 304 303 299 302 306 307 307 301 298 299 295 297 295 295 296 296 296 296 295 295 294 291 288 287 290 292 292 294 294 294 296 294 296 297 299 301 299 297 298 299 299 299 300
Wind_Speed
11 11 10 9 7 7 5 9 11 9 8 4 14 7 4 12 15 2 1 2 6 9 9 7 12 13 10 5 4 2 4 3 4 6 2 2 3 2 2 3 4 2 2 2 5
9 9 8 9 10 10 6 7 12 10 11 8 5 12 6 3 10 14 7 3 6 8 9 11 14 12 5 4 5 6 3 4 2 2 2 2 1 2 1 2 3 4 3 1 3
9 8 8 9 10 10 9 10 10 11 10 5 8 3 6 3 4 11 6 3 5 6 9 12 12 8 7 6 6 3 3 4 2 2 1 2 2 2 3 4 5 4 4 1 2
7 7 8 9 10 10 10 11 10 10 9 8 3 4 10 2 2 9 7 4 7 6 9 10 8 5 5 4 3 6 3 3 4 0 2 1 4 4 6 3 2 2 2 1 4
7 8 9 9 10 11 11 11 10 10 8 8 5 3 2 5 5 7 9 4 7 6 7 7 7 6 6 6 4 4 4 4 5 2 2 2 5 6 12 9 4 3 4 3 4
8 9 9 10 10 11 11 11 9 9 7 5 9 3 1 2 5 6 10 10 7 7 7 4 5 10 10 4 3 4 8 5 0 3 1 2 3 3 5 14 9 6 6 6 6
7 8 9 10 10 10 11 11 9 7 6 4 4 5 5 3 6 7 8 11 11 11 14 12 9 2 6 5 6 10 4 2 1 4 2 6 5 8 9 16 12 9 9 8 7
8 8 9 9 10 10 10 10 8 8 6 4 3 1 2 4 6 6 5 8 12 14 13 12 11 11 6 12 6 4 4 1 1 8 1 1 8 3 9 15 16 14 12 10 8
8 8 9 10 10 10 11 11 8 6 4 3 3 1 2 3 6 6 4 4 8 8 8 7 6 8 5 4 4 6 2 2 4 5 4 2 7 4 7 17 19 19 16 13 12
8 9 10 10 10 9 10 10 5 4 4 3 2 0 2 4 5 5 3 3 2 4 3 3 6 4 4 5 4 3 2 3 4 5 5 4 18 13 23 20 25 26 23 19 16
10 9 9 9 8 8 8 5 2 2 6 4 4 2 4 4 4 6 0 2 4 3 4 6 6 3 3 0 1 5 2 2 3 1 5 4 10 23 18 26 28 35 35 33 28
10 10 10 10 8 7 6 1 5 3 4 5 3 3 5 6 2 9 4 0 3 3 4 6 3 3 1 2 2 2 1 3 5 1 3 5 17 16 7 9 21 27 34 32 25
10 10 10 11 7 6 6 6 3 3 2 3 4 3 3 5 5 11 7 3 6 5 5 5 2 2 0 4 2 2 1 2 2 8 1 8 8 5 3 5 7 13 19 24 24
10 10 10 11 5 8 5 6 4 4 5 4 2 2 3 2 3 9 6 3 6 5 3 5 1 2 2 3 2 1 2 2 4 6 3 4 5 8 4 8 5 6 14 24 22
12 11 9 8 6 6 5 5 4 2 4 1 2 1 3 1 0 4 7 3 3 3 3 2 2 2 2 1 1 2 1 1 1 2 3 1 2 9 4 6 6 9 14 18 20
10 11 10 7 5 6 6 6 3 6 5 2 2 1 2 2 1 1 2 5 5 4 5 3 1 1 2 2 2 2 2 3 3 2 2 1 3 6 4 5 2 4 15 17 18
10 10 9 9 7 5 4 2 5 4 3 4 2 2 1 1 2 3 2 2 4 5 1 3 1 1 1 3 2 2 4 3 5 3 4 0 1 12 3 6 5 4 8 14 16
13 12 12 9 6 6 4 5 3 2 6 1 2 2 2 2 1 0 3 1 2 4 4 4 5 1 3 2 2 2 3 4 5 2 5 3 7 6 6 4 11 11 9 11 14
17 16 14 11 8 4 1 3 7 7 5 8 2 4 5 3 1 2 3 4 7 8 8 5 4 1 2 1 1 3 1 1 5 2 3 4 8 11 7 11 15 17 14 14 14
22 17 21 16 12 6 3 6 5 4 5 2 7 4 6 4 1 3 1 3 3 2 5 5 2 1 2 2 2 3 5 3 3 2 5 5 5 8 4 3 2 7 18 17 16
22 8 12 11 10 7 4 8 6 8 7 5 7 4 4 5 6 4 5 4 3 3 5 3 3 1 2 5 7 3 2 3 3 4 4 3 6 7 7 4 8 11 20 20 19
20 4 12 15 6 3 4 7 4 5 8 4 1 4 8 7 6 3 7 6 9 11 6 5 5 4 6 1 1 1 3 5 4 6 3 2 9 4 7 7 7 14 13 14 19
10 12 15 25 5 3 2 4 6 6 6 6 7 7 4 7 0 6 5 1 13 7 6 4 2 2 7 4 4 3 5 3 4 2 7 5 7 1 3 4 10 16 15 17 20
10 4 7 22 9 5 5 5 5 11 5 8 4 5 4 5 3 4 5 4 11 9 5 8 2 6 7 5 4 4 4 6 5 3 4 9 21 22 20 15 14 23 28 28 29
18 7 12 6 7 7 9 11 10 7 7 12 3 7 9 6 5 6 4 3 2 7 7 6 6 4 4 4 2 4 5 8 13 13 9 23 16 25 22 8 14 21 28 33 31
17 7 8 4 11 22 14 18 21 6 13 9 7 15 11 10 11 13 9 5 6 5 6 1 3 3 4 2 5 7 7 11 20 13 17 26 29 31 44 39 34 31 26 24 27
39 24 14 13 7 11 16 23 20 12 14 16 23 11 14 24 7 3 5 6 10 12 10 7 6 3 6 3 3 11 14 23 16 8 17 17 28 27 20 14 20 28 29 30 30
Wind_Direction
71 71 66 67 47 32 39 57 30 14 14 339 227 229 49 46 44 48 48 21 58 49 46 113 145 148 134 106 87 81 64 137 174 146 209 318 26 37 76 149 93 93 102 15 358
51 50 45 32 24 24 23 10 10 17 7 9 21 210 278 338 26 41 45 66 76 69 79 112 123 129 91 70 40 67 90 184 177 140 176 294 272 316 177 125 136 136 132 39 2
46 31 29 15 14 15 4 350 357 5 8 23 61 36 279 283 357 17 25 126 121 96 110 117 120 109 73 53 27 44 133 160 165 171 184 212 235 285 168 228 197 185 169 139 350
29 22 17 5 7 7 1 350 346 354 359 8 323 345 30 112 62 12 26 150 157 142 144 139 136 87 72 77 41 87 74 154 148 128 199 163 297 286 222 234 188 185 194 271 340
4 8 4 360 2 359 358 349 342 353 347 3 3 355 4 67 37 26 30 65 163 160 166 165 150 120 113 112 101 88 153 116 99 89 170 273 247 243 248 220 223 228 242 266 304
353 353 353 353 355 355 353 345 344 342 338 343 20 18 338 75 32 45 50 62 129 136 143 166 143 125 105 83 73 122 121 128 113 9 259 322 273 312 261 205 215 231 247 257 277
343 342 344 346 347 346 346 342 341 351 352 338 307 321 49 95 45 58 68 74 96 100 104 108 120 102 112 96 88 115 76 348 241 342 290 318 259 233 227 194 210 227 244 255 262
336 336 337 338 338 336 336 333 326 350 336 345 320 13 99 56 47 46 94 81 98 101 96 93 95 84 62 115 53 48 59 67 67 2 257 341 271 318 202 200 215 225 238 250 260
336 333 333 332 331 335 333 331 318 322 305 345 324 185 75 24 22 42 71 102 110 102 93 88 83 82 78 66 39 13 228 276 317 44 312 49 274 275 212 213 227 234 237 243 256
337 338 335 333 331 332 330 330 312 317 309 289 18 150 74 337 9 9 56 91 141 122 75 56 57 73 38 52 225 212 192 242 262 337 352 278 269 254 252 246 244 243 238 237 254
335 335 336 331 325 329 332 329 303 273 30 76 26 9 350 331 14 2 160 62 93 76 40 23 65 106 147 331 106 102 99 274 262 42 334 236 277 280 259 249 244 243 242 245 249
330 332 334 332 330 343 356 8 58 124 79 54 36 11 12 1 336 14 16 122 82 76 339 30 89 188 266 346 104 69 150 276 276 163 6 341 291 282 261 240 243 240 238 235 233
329 331 332 333 329 349 24 53 39 27 104 29 35 13 2 7 30 358 21 34 74 61 9 128 114 128 75 35 97 49 30 4 289 325 233 316 290 318 278 271 269 248 236 225 222
331 332 333 336 333 347 22 25 9 6 71 296 335 332 345 22 25 25 28 49 36 134 88 85 1 78 76 84 44 322 78 59 335 14 288 14 280 302 323 301 263 248 215 214 223
343 339 338 345 337 349 347 351 360 50 22 205 289 305 19 137 128 11 39 74 84 106 105 186 121 110 107 99 39 152 27 56 87 72 348 8 45 271 341 285 265 240 222 219 223
343 343 340 336 335 338 338 338 9 45 256 297 266 264 167 40 35 355 89 82 115 91 46 106 106 64 114 63 84 149 129 65 52 72 9 236 136 279 219 216 233 231 226 223 223
326 331 335 332 320 319 330 330 33 137 349 270 213 13 55 1 23 37 51 70 152 79 302 10 185 99 100 147 159 119 63 328 348 3 228 348 219 246 269 241 228 213 226 223 228
303 308 312 311 300 306 316 51 107 233 222 236 121 95 192 354 238 183 118 210 222 95 93 142 319 41 359 50 140 94 145 158 230 250 279 297 237 252 219 239 258 241 254 221 215
286 288 287 286 281 271 211 61 211 205 163 153 108 78 311 360 87 357 229 216 193 177 157 132 253 160 81 79 78 154 139 149 99 64 34 241 288 294 252 262 261 245 229 235 232
277 280 277 267 251 212 88 232 217 199 142 156 178 164 198 238 140 150 161 218 198 280 356 219 71 345 73 127 75 161 153 74 6 332 294 278 277 245 294 274 250 234 236 237 229
260 264 258 226 198 183 178 226 241 212 182 171 200 163 202 187 169 207 226 292 155 112 65 124 107 266 47 207 174 141 174 61 115 160 199 297 254 219 236 244 239 242 246 248 235
227 201 218 201 177 168 169 194 192 196 196 215 196 194 186 163 180 235 220 210 173 155 173 203 147 182 215 118 20 331 218 174 134 229 226 153 267 262 231 246 249 260 267 261 254
220 212 206 190 204 213 254 246 221 169 203 176 208 200 177 183 229 192 205 210 169 153 160 205 290 25 339 360 3 215 199 200 88 79 203 155 259 172 240 264 258 257 267 278 276
212 183 176 205 212 202 155 218 225 207 192 185 177 123 135 210 234 207 234 185 186 177 159 139 119 181 195 206 132 200 220 189 148 149 184 223 273 265 270 273 271 269 276 287 291
213 232 183 194 217 209 181 177 189 196 216 195 208 210 172 185 165 218 195 133 172 196 153 139 200 168 242 210 177 214 184 186 208 218 208 267 239 266 267 259 257 282 289 290 292
224 179 179 223 179 190 204 220 221 194 156 225 212 195 193 186 186 201 158 187 194 158 159 190 204 123 291 4 212 265 199 210 222 234 256 258 274 266 276 280 273 275 275 277 288
232 243 224 186 181 183 211 214 216 185 219 217 205 178 206 223 204 7 184 227 169 158 174 156 138 111 261 10 352 287 217 211 221 198 227 245 245 270 278 268 267 273 278 278 283